This demonstration page uses our WeatherBlox Daily Observations layout. Learn more.

Left ArrowRight Arrow

Hourly Observations for January 27, 2021

Temp ( °F °C ) Dew Point ( °F °C ) Humidity (%) Winds ( mph kmh ) Pressure ( in mb ) Visibility ( mi km ) Precip ( " mm )
12:53 am 00:53 Clear 8 -13.3 5 -15 87 87 ENE 12 19 29.99 1016 10 16 0.00 0.00
1:53 am 01:53 Clear 8 -13.3 5 -15 87 87 E 8 13 29.98 1015 10 16 0.00 0.00
2:53 am 02:53 Clear 7 -13.9 4 -15.6 87 87 ENE 9 15 29.99 1016 10 16 0.00 0.00
3:53 am 03:53 Clear 6 -14.4 3 -16.1 87 87 E 8 13 30.00 1016 10 16 0.00 0.00
4:53 am 04:53 Clear 4 -15.6 1 -17.2 88 88 E 6 9 30.03 1017 10 16 0.00 0.00
5:53 am 05:53 Clear 0 -17.8 -3 -19.4 87 87 Calm 30.03 1017 10 16 0.00 0.00
6:53 am 06:53 Clear 2 -16.7 -2 -18.9 83 83 E 6 9 30.03 1017 10 16 0.00 0.00
7:53 am 07:53 Clear 3 -16.1 0 -17.8 87 87 E 3 6 30.03 1017 10 16 0.00 0.00
8:53 am 08:53 Sunny 3 -16.1 0 -17.8 87 87 SW 6 9 30.05 1018 10 16 0.00 0.00
9:53 am 09:53 Sunny 10 -12.2 5 -15 80 80 Calm 30.03 1017 10 16 0.00 0.00
10:53 am 10:53 Sunny 14 -10 8 -13.3 77 77 ENE 6 9 30.03 1017 10 16 0.00 0.00
11:53 am 11:53 Sunny 18 -7.8 11 -11.7 74 74 ENE 8 13 29.99 1016 10 16 0.00 0.00
12:53 pm 12:53 Mostly Cloudy 23 -5 15 -9.4 72 72 ENE 10 17 29.96 1015 10 16 0.00 0.00
1:53 pm 13:53 Mostly Cloudy 27 -2.8 16 -8.9 63 63 E 13 20 29.93 1014 10 16 0.00 0.00
2:53 pm 14:53 Cloudy 29 -1.7 17 -8.3 61 61 ENE 8 13 29.93 1014 10 16 0.00 0.00
3:53 pm 15:53 Cloudy 27 -2.8 16 -8.9 63 63 SW 7 11 29.96 1015 10 16 0.00 0.00
4:53 pm 16:53 Mostly Cloudy 25 -3.9 15 -9.4 66 66 SSE 6 9 29.96 1015 10 16 0.00 0.00
5:53 pm 17:53 Clear 23 -5 15 -9.4 72 72 ENE 9 15 29.97 1015 10 16 0.00 0.00
6:53 pm 18:53 Clear 21 -6.1 14 -10 74 74 ENE 12 19 29.97 1015 10 16 0.00 0.00
7:53 pm 19:53 Partly Cloudy 20 -6.7 14 -10 78 78 ENE 13 20 29.97 1015 10 16 0.00 0.00
8:53 pm 20:53 Clear 16 -8.9 12 -11.1 84 84 E 5 7 29.99 1016 10 16 0.00 0.00
9:53 pm 21:53 Clear 16 -8.9 11 -11.7 80 80 Calm 30.00 1016 10 16 0.00 0.00
10:53 pm 22:53 Clear 13 -10.6 10 -12.2 88 88 Calm 30.00 1016 10 16 0.00 0.00
11:53 pm 23:53 Clear 7 -13.9 3 -16.1 84 84 W 6 9 30.02 1017 10 16 0.00 0.00

Powered by AerisWeather